Location: Peterborough
(44.3091°N, 78.3197°W)
Time: 07:28:52
(UTC-04:00)

Vanguard 2 - Pass Details

Date: 30 March 2023
Orbit: 552 x 2926 km, 32.9° (Epoch: 04 June)

Event Time Altitude Azimuth Distance (km) Brightness Sun altitude
Rises 05:47:18 0° 237° (WSW) 6,531 - -13.3°
Reaches altitude 10° 05:51:40 10° 232° (SW) 5,653 - -12.5°
Exits shadow 05:51:50 10° 232° (SW) 5,622 11.3 -12.5°
Maximum altitude 06:08:13 49° 165° (SSE) 3,388 10.8 -9.7°
Drops below altitude 10° 06:22:20 10° 97° (E) 4,898 13.0 -7.2°
Sets 06:25:48 0° 92° (E) 5,635 13.8 -6.6°
